www.pogodaiklimat.ru
ПОГОДА в Тавау
Время
(UTC), дата
09 21.05
12 21.05
15 21.05
18 21.05
21 21.05
00 22.05
03 22.05
06 22.05
09 22.05
12 22.05
15 22.05
18 22.05
21 22.05
00 23.05
03 23.05
06 23.05
09 23.05
12 23.05
15 23.05
18 23.05
21 23.05
00 24.05
03 24.05
06 24.05
09 24.05
12 24.05
15 24.05
18 24.05
21 24.05
00 25.05
03 25.05
06 25.05
09 25.05
12 25.05
15 25.05
18 25.05
21 25.05
00 26.05
03 26.05
06 26.05
09 26.05
12 26.05
15 26.05
18 26.05
21 26.05
00 27.05
03 27.05
06 27.05
09 27.05
12 27.05
15 27.05
18 27.05
21 27.05
00 28.05
03 28.05
06 28.05
Ветер
(напр.,м/с)
Видим. Явления Облачность Т
(С)
Тd
(С)
f
(%)
Тe
(С)
Тes
(С)
Комфортность P
(гПа)
Po
(гПа)
Тmin
(С)
Tmax
(С)
R
(мм)
R24
(мм)
S
(см)
В 3 15 км мгла 9/3 500 м
[Cu Sc Ac lent Ci fib]
+30.8 +25.7 74 +45 +46 опасность
перегрева
1007.1 1005.2
СЗ 2 14 км мгла 9/3 500 м
[Cu Sc Ac lent Ci sp]
+27.3 +25.6 90 +40 +40 очень
душно
1008.7 1006.8 +32.8
С 1 14 км мгла 9/3 500 м
[Cu Sc Ac lent Ci sp]
+26.2 +25.3 95 +38 +38 очень
душно
1010.4 1008.5
СЗ 1 12 км мгла 9/3 480 м
[Cu Sc Ac trans Ci sp]
+25.7 +24.9 95 +36 +36 очень
душно
1009.6 1007.7
З 1 15 км мгла 8/1 480 м
[Cu Sc Ac trans Ci fib]
+25.3 +24.8 97 +36 +36 очень
душно
1008.9 1007.0
С 1 12 км мгла {дождь} 8/4 50 м
[Cb cap Ac trans Ci fib]
+28.4 +25.9 86 +42 +45 опасность
перегрева
1010.5 1008.6 +25.0 0.0 0.0
ЮВ 2 12 км мгла 8/3 500 м
[Cu Sc Ac lent Ci fib]
+31.7 +25.9 71 +47 +55 опасность
перегрева
1010.6 1008.7
Ю 6 10 км осадки на расстоянии 8/4 480 м
[Cb cap Ac lent Ci fib]
+30.1 +25.5 76 +44 +46 опасность
перегрева
1009.2 1007.3
ЮВ 3 12 км мгла 9/4 500 м
[Cu Sc Ac lent Ci fib]
+27.8 +26.3 92 +42 +43 опасность
перегрева
1008.9 1007.0
СЗ 3 12 км мгла 9/3 500 м
[Cu Sc Ac lent Ci fib]
+26.7 +25.2 91 +38 +38 очень
душно
1010.6 1008.7 +32.8
штиль 0 15 км 9/3 500 м
[Cu Sc Ac As]
+25.9 +25.0 95 +37 +37 очень
душно
1011.2 1009.3
СЗ 1 12 км слаб. дождь 8/4 500 м
[Cu Sc Ac As]
+25.3 +24.5 95 +35 +35 очень
душно
1009.6 1007.7 0.4
штиль 0 12 км 8/3 500 м
[Cu Sc Ac As]
+25.2 +24.6 96 +35 +35 очень
душно
1009.8 1007.9
С 1 15 км 9/3 50 м
[Cu Sc Ac lent Ci fib]
+27.4 +25.8 91 +41 +43 опасность
перегрева
1010.8 1008.9 +25.1 0.4 0.4
ЮВ 3 15 км 8/3 500 м
[Cu Sc Ac lent Ci fib]
+31.6 +25.9 72 +47 +54 опасность
перегрева
1010.0 1008.1
ЮВ 4 15 км мгла 9/3 480 м
[Cu Sc Ac trans Ci sp]
+31.8 +25.7 70 +47 +51 опасность
перегрева
1008.4 1006.5
ЮВ 3 15 км мгла 9/3 500 м
[Cu Sc Ac As]
+30.4 +25.8 76 +45 +45 опасность
перегрева
1008.4 1006.5
штиль 0 14 км мгла 9/3 500 м
[Cu Sc Ac lent Ci sp]
+27.9 +26.1 90 +42 +42 опасность
перегрева
1011.0 1009.1 +32.6
С 1 15 км 8/1 500 м
[Cu Sc Ac lent Ci fib]
+26.5 +25.5 94 +39 +39 очень
душно
1012.2 1010.3
СЗ 2 15 км 6/1 500 м
[Cu Sc Ac lent Ci fib]
+25.6 +24.8 95 +36 +36 очень
душно
1011.1 1009.2
С 1 15 км 8/1 500 м
[Cu Sc Ac lent Ci fib]
+24.9 +24.2 96 +34 +34 очень
душно
1010.3 1008.4
Ю 1 15 км мгла 8/4 2000 м
[Cu Sc Ac trans Ci fib]
+29.7 +26.4 82 +45 +47 опасность
перегрева
1011.8 1009.9 +24.8
Ю 4 17 км мгла 9/4 480 м
[Cu Sc Ac trans Ci sp]
+32.3 +26.3 71 +49 +54 опасность
перегрева
1012.2 1010.3
ЮВ 4 15 км мгла 9/3 500 м
[Cu Sc Ac lent Ci fib]
+32.5 +25.8 68 +48 +53 опасность
перегрева
1010.3 1008.4
Ю 3 15 км мгла 8/3 500 м
[Cu Sc Ac lent Ci fib]
+31.4 +26.2 74 +47 +48 опасность
перегрева
1009.5 1007.6
С 1 15 км мгла 8/3 480 м
[Cu Sc Ac trans Ci fib]
+28.3 +26.0 87 +42 +42 опасность
перегрева
1011.6 1009.7 +33.3
С 2 14 км мгла 8/3 480 м
[Cu Sc Ac trans Ci fib]
+27.1 +25.8 93 +40 +40 очень
душно
1013.2 1011.3
С 2 14 км гроза без осадков 9/5 480 м
[Cb cap Ac lent Ci sp]
+26.8 +23.5 82 +36 +36 очень
душно
1012.3 1010.4
З 2 12 км гроза, ливневой дождь 9/5 480 м
[Cb cap Ac lent Ci sp]
+25.4 +24.4 94 +35 +35 очень
душно
1013.2 1011.3
Ю 1 17 км {гроза, дождь} 9/5 450 м
[Cb cap Ac As]
+25.6 +24.6 94 +36 +37 очень
душно
1014.9 1013.0 +25.1 0.4 0.4
Ю 2 15 км мгла 9/4 500 м
[Cu Sc Ac lent Ci sp]
+31.4 +25.8 72 +46 +53 опасность
перегрева
1013.1 1011.2
Ю 3 15 км 8/1 500 м
[Cu Sc Ac lent Ci fib]
+31.1 +25.4 72 +45 +53 опасность
перегрева
1010.3 1008.4
ЮВ 2 17 км 8/3 500 м
[Cu Sc Ac lent Ci fib]
+30.0 +24.7 73 +43 +43 опасность
перегрева
1009.9 1008.0
З 1 12 км зарница 9/3 480 м
[Cb cap Ac lent Ci fib]
+26.9 +24.8 88 +38 +38 очень
душно
1011.8 1009.9 +31.9
СЗ 1 15 км 9/3 500 м
[Cu Sc Ac lent Ci fib]
+25.5 +24.3 93 +35 +35 очень
душно
1012.7 1010.8
СЗ 1 15 км 8/3 500 м
[Cu Sc Ac lent Ci fib]
+24.9 +24.1 95 +34 +34 очень
душно
1011.8 1009.9
СЗ 1 15 км 8/3 500 м
[Cu Sc Ac lent Ci fib]
+24.3 +23.6 96 +33 +33 очень
душно
1011.5 1009.6
С 1 16 км 6/1 50 м
[Cu Sc Ci fib]
+28.6 +25.8 85 +43 +47 опасность
перегрева
1012.8 1010.9 +24.3
ЮЗ 2 17 км 8/4 500 м
[Cu Sc Ac lent Ci fib]
+32.6 +26.5 70 +49 +57 опасность
перегрева
1012.0 1010.1
Ю 4 17 км 8/3 500 м
[Cu Sc Ac lent Ci fib]
+32.6 +26.0 68 +48 +53 опасность
перегрева
1009.6 1007.7
ЮВ 3 20 км 8/3 500 м
[Cu Sc Ac trans Ci fib]
+30.8 +26.1 76 +46 +47 опасность
перегрева
1009.1 1007.2
штиль 0 15 км 6/1 500 м
[Cu Sc Ac lent Ci fib]
+28.0 +25.8 88 +42 +42 опасность
перегрева
1011.0 1009.1 +33.4
С 1 15 км 6/1 500 м
[Cu Sc Ac lent Ci fib]
+26.6 +25.6 94 +39 +39 очень
душно
1011.6 1009.7
СЗ 2 15 км 6/3 500 м
[Cu Sc Ac lent Ci fib]
+25.6 +24.7 95 +36 +36 очень
душно
1010.3 1008.4
штиль 0 15 км 8/3 500 м
[Cu Sc Ac lent Ci fib]
+24.6 +23.8 95 +33 +33 очень
душно
1010.4 1008.5
СЗ 2 18 км 6/1 50 м
[Cu Sc Ac lent Ci fib]
+29.1 +25.9 83 +44 +47 опасность
перегрева
1012.6 1010.7 +24.5
ЮВ 3 18 км 6/3 500 м
[Cu Sc Ac trans Ci fib]
+32.2 +25.6 68 +47 +55 опасность
перегрева
1012.0 1010.1
СЗ 1 10 км гроза без осадков {ливн. осадки} 9/5 480 м
[Cb cap Ac lent Ci sp]
+29.3 +25.5 80 +43 +49 опасность
перегрева
1010.0 1008.1 9
Ю 3 17 км 8/4 500 м
[Cu Sc Ac lent Ci fib]
+30.6 +26.6 79 +47 +48 опасность
перегрева
1009.0 1007.1
штиль 0 15 км 8/3 500 м
[Cu Sc Ac lent Ci fib]
+27.5 +26.1 92 +41 +41 опасность
перегрева
1011.1 1009.2 +33.1
СЗ 2 15 км гроза без осадков 8/3 480 м
[Cb cap Ac lent Ci fib]
+26.2 +25.4 95 +38 +38 очень
душно
1012.5 1010.6
С 1 15 км {гроза} 9/4 300 м
[Cu Sc Ac trans Ci sp]
+25.7 +25.2 97 +37 +37 очень
душно
1011.2 1009.3
СЗ 2 10 км дымка {дождь} 9/3 300 м
[Cu Sc Ac lent Ci sp]
+25.5 +25.1 98 +37 +37 очень
душно
1011.3 1009.4
С 2 9000 м осадки на расстоянии 9/6 240 м
[Cb cap Ac lent Cs]
+26.1 +24.9 93 +37 +38 очень
душно
1012.8 1010.9 +25.0 17 17.2
С 1 18 км 9/4 480 м
[Cb cap Ac lent Ci sp]
+30.1 +26.5 81 +46 +54 опасность
перегрева
1012.1 1010.2
Ю 4 10 км осадки на расстоянии 9/3 480 м
[Cb cap Ac lent Ci fib]
+31.9 +26.0 71 +47 +52 опасность
перегрева
1010.3 1008.4
Местоположение метеостанции Тавау (Малайзия): широта 4.27 долгота 117.88 высота над уровнем моря 20 м.
В архиве по умолчанию представлена погода в Тавау за последнюю неделю. Архивные данные за месяц целиком и за предыдущие месяцы, начиная с января 2011 года, Вы можете получить, выбрав интересующий диапазон дат из раскрывающегося списка и нажав кнопку "Найти!".
*Определитесь, кто Вы:
Внимание! Время в таблицах - всемирное. Для получения местного времени необходимо прибавить поправку, которая равна 8 ч.
Смотрите также архив погоды в соседних городах и на ближайших метеорологических станциях:
Партнеры нашего сайта:      
Пояснения к столбцам:
  • Ветер - указаны скорость ветра в м/с - средняя за 10 мин, порывы в срок и между сроками (в фигурных скобках) и направление, откуда дует ветер: С - северный,
  • СВ - северо-восточный, В - восточный, ЮВ - юго-восточный, Ю - южный, ЮЗ - юго-западный, З - западный, СЗ - северо-западный.
  • Видимость - горизонтальная дальность видимости в метрах или километрах. При видимости от 1 до 10 км при отсутствии осадков обычно наблюдается дымка, при ухудшении видимости до 1 км и менее - туман. В сухую погоду видимость может ухудшаться дымом, пылью или мглою.
  • Явления - указаны атмосферные явления, наблюдавшиеся в срок или в последний час перед сроком; фигурными скобками обозначены явления, наблюдавшиеся между сроками (за 1-3 часа до срока); квадратными скобками обозначены град или гололедные отложения с указанием их диаметра в мм.
  • Облачность - указаны через наклонную черту общая и нижняя облачность в баллах и высота нижней границы облаков в метрах; квадратными скобками обозначены формы облаков: Ci - перистые, Cs - перисто-слоистые, Cc - перисто-кучевые, Ac - высококучевые, As - высокослоистые, Sc - слоисто-кучевые, Ns - слоисто-дождевые, Cu - кучевые, Cb - кучево-дождевые. Подробнее классификацию облаков см. в Атласе облаков (PDF).
  • T - Температура воздуха - температура, измеренная на высоте 2 м над землей.
  • Td - Температура точки росы - температура, при понижении до которой содержащийся в воздухе водяной пар достигнет насыщения.
  • f - Относительная влажность воздуха - влажноcть воздуха, измеренная на высоте 2 м над землей.
  • Te - Эффективная температура - температура, которую ощущает одетый по сезону человек в тени. Характеристика душности погоды. При расчете учитывается влияние влажности воздуха и скорости ветра на теплоощущения человека.
  • Tes - Эффективная температура на солнце - температура, которую ощущает человек, с поправкой на солнечный нагрев. Характеристика знойности погоды. Зависит от высоты солнца над горизонтом, облачности и скорости ветра. Ночью, в пасмурную погоду, а также при ветре 12 м/с и более поправка равна нулю.
  • P - Атмосферное давление - приведенное к уровню моря атмосферное давление.
  • Po - Атмосферное давление - измеренное на уровне метеостанции атмосферное давление.
  • Tmin - Минимальная температура - минимум температуры воздуха на высоте 2 м над землей.
  • Tmax - Максимальная температура - максимум температуры воздуха на высоте 2 м над землей.
  • R - Количество осадков - Количество выпавших осадков за период времени, мм. При наведении курсора мыши на число - период времени, за который выпало указанное количество осадков.
  • R24 - Количество осадков - Количество выпавших осадков за 24 часа, мм.
  • S - Снежный покров - Высота снежного покрова, см. При наведении курсора мыши на число - состояние снежного покрова и степень покрытия местности в баллах.